FENGYUN 1C DEB, 35210

Orbit data source: Space-Track

FENGYUN 1C DEB, 35210 is space debris in SSO originally from a launch on Mon, 10 May 1999 UTC launched from the Taiyaun Space Center, China (TSC). Fengyun 1C debris stems from the Chinese weather satellite Fengyun-1C, which was intentionally destroyed by a Chinese anti-satellite missile in 2007. This event dramatically increased the amount of space debris, with thousands of trackable fragments posing hazards to satellites and human spaceflight. The Fengyun 1C debris cloud has become a focal point in discussions about space sustainability and the need for international regulations to prevent the creation of new debris.

Loading next visibility...
Identifier
35210, 1999-025DPS
Orbit
SSO
Country
Flag of CNCN / PRC
Related business
Manufacturer
Unknown
Mission
Spacecraft
Bus & Motor
Unknown
Mass
Unknown
Launch date (UTC)
1999-05-10 (27 years ago)
Launch vehicle
Unknown
Launch site
Taiyaun Space Center, China (TSC)
Object type
Payload
Rocket body
Debris
Shape & HBR
Unknown shape, 0.1 m
Radar Cross Section
Small (<0.1 m²)

Expand to show TLE details & history
Last TLE update: 2 days ago

TLE from 2 days ago
0 FENGYUN 1C DEB
1 35210U 99025DPS 26122.52097146  .00005299  00000-0  18304-2 0  9996
2 35210  99.0948 138.7573 0048777 185.8361 325.8178 14.35566803921413
Epoch: 2026-05-02T12:30Z
TLE epoch observation values (Epoch: 2026-05-02T12:30:11.934Z)
Latitude
28.31425°
Longitude
-84.30896°
Altitude
747.864 km
Speed
7.498 km/s
True Right ascension
21h 34m 42s
True Declination
28° 10' 14"
Sunlit
Object was in daylight at epoch
Visualization orbit readout
Latitude
Unknown
Longitude
Unknown
Altitude
Unknown
Speed
Unknown
Apparent Right ascension
Unknown
Apparent Declination
Unknown
Sunlit
N/A
Visualization observer readout
Local Sidereal Time
18:20:08
Azimuth
Unknown
Elevation
Unknown
Doppler factor
Unknown
Orbital elements
Apogee altitude
805.208 km
Perigee altitude
735.472 km
Semi-major axis
7,148.477 km
Eccentricity
0.00488
Inclination
99.0948°
RAAN
138.7573°
Arg. of periapsis
185.8361°
True anomaly
325.50218°
Mean anomaly
325.8178°
Eccentric anomaly
325.66015°
Mean motion
3.59106 °/min
Orbital period
100.25 mins
BSTAR
0.0018304
Loading maneuver chart data...
Computing Atmospheric mass density...

Documentation

Showing up to 5 results
|